Date String (YYYY-MM-DD hh:mm:ss) UTC,Instrument flags,Ambient pressure (hPa),Sample flow (lpm),Bypass flow (lpm),Sample temperature (°C),Ambient temperature (°C),ASC tube jacket temperature (°C),LED temperature (°C),Box temperature (°C),Sample RH (%),Span deviation,Mass concentration (μg/m³),Mass concentration (μg/m³),Mass concentration (μg/m³)
DateTimeUTC,F1_M11,P_M11,Q1_M11,Q2_M11,T1_M11,T2_M11,T3_M11,T4_M11,T5_M11,U1_M11,ZSPAN_M11,X0_M11,X2_M11,X1_M11
2021-09-25 11:00:00,,0830.4,5.00,0.00,30.4,29.4,00.0,39.6,32.1,16.4,0002.1,0022.50,0007.46,0005.54
2021-09-25 11:01:00,,0830.5,5.01,0.00,30.4,29.4,00.0,39.6,32.1,16.4,0001.5,0021.32,0007.41,0005.54
2021-09-25 11:02:00,,0830.6,4.99,0.00,30.4,29.4,00.0,39.6,32.1,16.3,0001.7,0022.96,0007.45,0005.54
2021-09-25 11:03:00,,0830.6,5.00,0.00,30.4,29.4,00.0,39.6,32.1,16.2,0001.5,0022.38,0007.37,0005.53
2021-09-25 11:04:00,,0830.5,5.00,0.00,30.4,29.5,00.0,39.6,32.0,16.2,0001.1,0020.94,0007.39,0005.54
2021-09-25 11:05:00,,0830.6,5.00,0.00,30.4,29.5,00.0,39.6,32.1,16.2,0001.4,0020.92,0007.40,0005.54
2021-09-25 11:06:00,,0830.5,5.01,0.00,30.4,29.5,00.0,39.6,32.1,16.2,0001.7,0020.42,0007.39,0005.54
2021-09-25 11:07:00,,0830.5,5.00,0.00,30.4,29.5,00.0,39.6,32.1,16.4,0001.3,0020.21,0007.33,0005.54
2021-09-25 11:08:00,,0830.5,5.00,0.00,30.4,29.5,00.0,39.6,32.1,16.5,0001.1,0019.64,0007.30,0005.55
2021-09-25 11:09:00,,0830.4,5.01,0.00,30.4,29.5,00.0,39.6,32.1,16.5,0000.9,0020.82,0007.32,0005.57
2021-09-25 11:10:00,,0830.4,5.00,0.00,30.4,29.5,00.0,39.6,32.1,16.4,0000.8,0021.18,0007.35,0005.58
2021-09-25 11:11:00,,0830.4,5.00,0.00,30.4,29.5,00.0,39.6,32.1,16.4,0001.0,0020.95,0007.28,0005.58
2021-09-25 11:12:00,,0830.5,5.02,0.00,30.4,29.5,00.0,39.6,32.1,16.5,0001.6,0021.28,0007.31,0005.60
2021-09-25 11:13:00,,0830.5,4.99,0.00,30.4,29.5,00.0,39.6,32.1,16.4,0001.6,0020.12,0007.32,0005.61
2021-09-25 11:14:00,,0830.5,5.01,0.00,30.4,29.5,00.0,39.6,32.1,16.2,0001.6,0018.97,0007.40,0005.62
2021-09-25 11:15:00,,0830.4,5.00,0.00,30.4,29.5,00.0,39.6,32.1,16.3,0002.2,0018.02,0007.36,0005.63
2021-09-25 11:16:00,,0830.4,5.00,0.00,30.4,29.5,00.0,39.6,32.1,16.3,0002.1,0020.42,0007.34,0005.64
2021-09-25 11:17:00,,0830.4,5.01,0.00,30.4,29.5,00.0,39.6,32.1,16.4,0002.1,0021.45,0007.39,0005.65
2021-09-25 11:18:00,,0830.5,5.00,0.00,30.4,29.5,00.0,39.6,32.1,16.0,0002.1,0021.84,0007.43,0005.66
2021-09-25 11:19:00,,0830.4,4.99,0.00,30.4,29.5,00.0,39.6,32.1,15.9,0002.2,0022.21,0007.44,0005.66
2021-09-25 11:20:00,,0830.4,5.01,0.00,30.4,29.5,00.0,39.6,32.1,16.2,0002.4,0021.33,0007.43,0005.64
2021-09-25 11:21:00,,0830.4,4.99,0.00,30.4,29.5,00.0,39.6,32.1,16.5,0002.8,0020.89,0007.43,0005.64
2021-09-25 11:22:00,,0830.4,5.01,0.00,30.4,29.5,00.0,39.6,32.1,16.5,0002.7,0021.19,0007.50,0005.65
2021-09-25 11:23:00,,0830.3,5.00,0.00,30.4,29.4,00.0,39.6,32.1,16.2,0002.7,0021.60,0007.48,0005.63
2021-09-25 11:24:00,,0830.4,4.98,0.00,30.4,29.4,00.0,39.6,32.1,16.1,0002.8,0021.48,0007.46,0005.60
2021-09-25 11:25:00,,0830.4,5.01,0.00,30.4,29.4,00.0,39.6,32.0,16.0,0003.2,0021.38,0007.36,0005.58
2021-09-25 11:26:00,,0830.4,5.00,0.00,30.4,29.4,00.0,39.6,32.0,16.0,0003.2,0021.48,0007.34,0005.55
2021-09-25 11:27:00,,0830.4,4.99,0.00,30.4,29.4,00.0,39.5,32.1,15.9,0003.1,0019.68,0007.29,0005.52
2021-09-25 11:28:00,,0830.4,4.99,0.00,30.4,29.4,00.0,39.6,32.1,15.9,0003.4,0019.99,0007.21,0005.48
2021-09-25 11:29:00,,0830.5,5.01,0.00,30.4,29.4,00.0,39.6,32.1,15.9,0003.4,0020.62,0007.23,0005.45
2021-09-25 11:30:00,,0830.5,5.00,0.00,30.4,29.4,00.0,39.5,32.1,15.8,0003.4,0020.20,0007.19,0005.41
2021-09-25 11:31:00,,0830.5,5.01,0.00,30.4,29.4,00.0,39.6,32.1,15.8,0002.5,0020.34,0007.16,0005.38
2021-09-25 11:32:00,,0830.4,4.99,0.00,30.4,29.4,00.0,39.6,32.1,15.9,0002.8,0020.28,0007.13,0005.36
2021-09-25 11:33:00,,0830.4,5.01,0.00,30.4,29.4,00.0,39.6,32.1,15.8,0003.0,0019.99,0007.06,0005.33
2021-09-25 11:34:00,,0830.4,4.99,0.00,30.4,29.4,00.0,39.5,32.1,15.9,0002.9,0019.44,0007.01,0005.31
2021-09-25 11:35:00,,0830.4,5.01,0.00,30.4,29.4,00.0,39.5,32.0,15.8,0003.0,0020.48,0006.96,0005.33
2021-09-25 11:36:00,,0830.4,4.99,0.00,30.4,29.4,00.0,39.5,32.0,15.7,0002.9,0020.28,0006.93,0005.33
2021-09-25 11:37:00,,0830.4,5.00,0.00,30.4,29.4,00.0,39.5,32.0,15.6,0002.7,0019.72,0006.99,0005.35
2021-09-25 11:38:00,,0830.4,4.99,0.00,30.4,29.4,00.0,39.5,32.1,15.6,0002.8,0018.26,0007.00,0005.35
2021-09-25 11:39:00,,0830.4,5.00,0.00,30.4,29.4,00.0,39.5,32.1,15.6,0002.3,0018.25,0006.96,0005.35
2021-09-25 11:40:00,,0830.4,5.01,0.00,30.3,29.4,00.0,39.5,32.0,15.7,0002.0,0017.41,0006.93,0005.36
2021-09-25 11:41:00,,0830.4,5.01,0.00,30.3,29.4,00.0,39.5,32.0,15.7,0002.1,0017.54,0006.90,0005.37
2021-09-25 11:42:00,,0830.4,5.00,0.00,30.3,29.3,00.0,39.5,32.0,15.8,0002.4,0017.63,0006.87,0005.38
2021-09-25 11:43:00,,0830.5,4.99,0.00,30.3,29.3,00.0,39.5,32.0,15.8,0002.9,0017.77,0006.84,0005.39
2021-09-25 11:44:00,,0830.4,5.01,0.00,30.3,29.3,00.0,39.5,32.0,15.8,0002.7,0017.88,0006.84,0005.39
2021-09-25 11:45:00,,0830.4,5.00,0.00,30.3,29.3,00.0,39.5,32.0,15.9,0002.2,0018.26,0006.88,0005.40
2021-09-25 11:46:00,,0830.5,4.99,0.00,30.3,29.3,00.0,39.5,32.0,15.9,0001.3,0017.86,0006.87,0005.41
2021-09-25 11:47:00,,0830.5,5.01,0.00,30.3,29.3,00.0,39.5,32.0,15.8,0000.4,0018.16,0006.92,0005.42
2021-09-25 11:48:00,,0830.4,5.00,0.00,30.3,29.3,00.0,39.5,32.0,15.8,0000.7,0019.87,0006.85,0005.42
2021-09-25 11:49:00,,0830.4,5.00,0.00,30.3,29.4,00.0,39.5,32.0,15.8,0001.1,0021.16,0006.85,0005.42
2021-09-25 11:50:00,,0830.4,5.01,0.00,30.3,29.3,00.0,39.5,32.0,15.8,0001.3,0020.55,0006.84,0005.44
2021-09-25 11:51:00,,0830.3,5.00,0.00,30.3,29.3,00.0,39.5,32.0,15.8,0001.6,0021.11,0006.83,0005.44
2021-09-25 11:52:00,,0830.4,5.00,0.00,30.3,29.3,00.0,39.5,32.0,15.8,0002.0,0021.00,0006.88,0005.45
2021-09-25 11:53:00,,0830.4,5.00,0.00,30.3,29.3,00.0,39.5,32.0,15.8,0001.7,0020.61,0006.95,0005.49
2021-09-25 11:54:00,,0830.5,5.00,0.00,30.3,29.3,00.0,39.5,32.0,15.8,0001.2,0020.45,0006.96,0005.51
2021-09-25 11:55:00,,0830.4,5.00,0.00,30.3,29.3,00.0,39.5,32.0,15.8,0001.4,0020.64,0006.98,0005.52
2021-09-25 11:56:00,,0830.4,5.01,0.00,30.3,29.3,00.0,39.5,32.0,15.8,0001.9,0020.34,0007.02,0005.54
2021-09-25 11:57:00,,0830.4,5.00,0.00,30.3,29.3,00.0,39.5,32.0,15.8,0002.4,0019.46,0007.06,0005.55
2021-09-25 11:58:00,,0830.4,4.99,0.00,30.3,29.3,00.0,39.5,32.0,15.9,0003.0,0019.30,0007.07,0005.56
2021-09-25 11:59:00,,0830.4,5.01,0.00,30.3,29.3,00.0,39.4,32.0,15.9,0002.8,0017.52,0007.14,0005.56
